Change the Weather History Date:

Tuesday, April 8, 2014

  Actual Average (KLXV) Record (KLXV)
Temperature  
Mean Temperature 30 °F -  
Max Temperature 37 °F 41 °F 53 °F (1978)
Min Temperature 24 °F 16 °F -10 °F (1983)
Degree Days  
Heating Degree Days 34 36  
Month to date heating degree days 295  
Since 1 July heating degree days 9278  
Cooling Degree Days 0 0  
Month to date cooling degree days 0  
Year to date cooling degree days 0  
Moisture  
Dew Point 20 °F    
Average Humidity 69    
Maximum Humidity 80    
Minimum Humidity 45    
Precipitation  
Precipitation 0.01 in 0.04 in 0.26 in (2004)
Month to date precipitation 0.27  
Year to date precipitation 2.53  
Sea Level Pressure  
Sea Level Pressure 30.43 in    
Wind  
Wind Speed 19 mph (West)    
Max Wind Speed 26 mph    
Max Gust Speed 36 mph    
Visibility 10 miles    
Events      
T = Trace of Precipitation, MM = Missing Value Source: NWS Daily Summary

Daily Weather History Graph

Daily Weather History Graph

Search for Another Location

Airport or City:

Trip Planner

Search our weather history database for the weather conditions in past years. The results will help you decide how hot, cold, wet, or windy it might be!

Date:

Astronomy

Apr. 08, 2014 Rise Set
Actual Time 6:37 AM MDT 7:35 PM MDT
Civil Twilight 6:10 AM MDT 8:03 PM MDT
Nautical Twilight 5:37 AM MDT 8:35 PM MDT
Astronomical Twilight 5:04 AM MDT 9:09 PM MDT
Moon 1:33 PM MDT (4/8) 2:50 AM MDT (4/8)
Length of Visible Light 13h 52m
Length of Day
12h 57m
Waxing Gibbous, 63% of the Moon is Illuminated
Apr 8
Waxing Gibbous
Apr 15
Full
Apr 22
Last Quarter
Apr 29
New
May 6
First Quarter

Hourly Weather History & Observations

Time (MDT) Temp. Windchill Dew Point Humidity Pressure Visibility Wind Dir Wind Speed Gust Speed Precip Events Conditions
12:16 AM 24.8 °F 11.1 °F 19.4 °F 80% 30.38 in - West 18.4 mph 25.3 mph N/A   Overcast
12:36 AM 24.8 °F 11.5 °F 19.4 °F 80% 30.38 in - West 17.3 mph 23.0 mph N/A   Overcast
12:56 AM 26.6 °F 12.7 °F 19.4 °F 74% 30.38 in - West 20.7 mph 24.2 mph N/A   Overcast
1:16 AM 26.6 °F 13.1 °F 19.4 °F 74% 30.38 in - West 19.6 mph 28.8 mph N/A   Overcast
1:36 AM 26.6 °F 13.8 °F 19.4 °F 74% 30.38 in - West 17.3 mph 24.2 mph N/A   Overcast
1:56 AM 26.6 °F 13.1 °F 19.4 °F 74% 30.38 in - West 19.6 mph 26.5 mph N/A   Overcast
2:16 AM 26.6 °F 13.4 °F 19.4 °F 74% 30.38 in - West 18.4 mph - N/A   Overcast
2:36 AM 24.8 °F 10.7 °F 19.4 °F 80% 30.38 in - WNW 19.6 mph 24.2 mph N/A   Overcast
2:56 AM 24.8 °F 11.5 °F 19.4 °F 80% 30.38 in - West 17.3 mph 20.7 mph N/A   Overcast
3:16 AM 24.8 °F 9.0 °F 19.4 °F 80% 30.36 in - West 25.3 mph 33.4 mph N/A   Overcast
3:36 AM 24.8 °F 8.7 °F 19.4 °F 80% 30.36 in - West 26.5 mph 31.1 mph N/A   Overcast
3:56 AM 24.8 °F 9.6 °F 19.4 °F 80% 30.36 in - West 23.0 mph 29.9 mph N/A   Overcast
4:16 AM 24.8 °F - 19.4 °F 80% 30.36 in - North - - N/A   Overcast
4:36 AM 24.8 °F 9.6 °F 19.4 °F 80% 30.37 in - WNW 23.0 mph 31.1 mph N/A   Overcast
4:56 AM 24.8 °F 11.1 °F 19.4 °F 80% 30.37 in - West 18.4 mph - N/A   Overcast
5:16 AM 24.8 °F 10.0 °F 19.4 °F 80% 30.36 in - West 21.9 mph - N/A   Overcast
5:36 AM 24.8 °F 10.3 °F 19.4 °F 80% 30.37 in - West 20.7 mph 24.2 mph N/A   Overcast
5:56 AM 24.8 °F 9.3 °F 19.4 °F 80% 30.37 in - West 24.2 mph - N/A   Overcast
6:16 AM 24.8 °F 10.3 °F 19.4 °F 80% 30.38 in - West 20.7 mph - N/A   Overcast
6:36 AM 24.8 °F - 19.4 °F 80% 30.37 in - North - - N/A   Overcast
6:56 AM 24.8 °F 9.6 °F 19.4 °F 80% 30.38 in - West 23.0 mph - N/A   Overcast
7:16 AM 24.8 °F 10.0 °F 19.4 °F 80% 30.38 in - West 21.9 mph 26.5 mph N/A   Overcast
7:36 AM 24.8 °F 11.1 °F 19.4 °F 80% 30.40 in - West 18.4 mph 29.9 mph N/A   Overcast
7:56 AM 24.8 °F 10.0 °F 19.4 °F 80% 30.40 in - West 21.9 mph 29.9 mph N/A   Overcast
8:16 AM 24.8 °F 13.4 °F 19.4 °F 80% 30.42 in - West 12.7 mph 16.1 mph N/A   Overcast
8:36 AM 24.8 °F 10.0 °F 19.4 °F 80% 30.41 in - West 21.9 mph - N/A   Overcast
8:56 AM 24.8 °F 10.7 °F 19.4 °F 80% 30.42 in - West 19.6 mph - N/A   Overcast
9:16 AM 24.8 °F 10.3 °F 19.4 °F 80% 30.42 in - West 20.7 mph 25.3 mph N/A   Overcast
9:36 AM 24.8 °F 11.9 °F 19.4 °F 80% 30.43 in - West 16.1 mph 20.7 mph N/A   Overcast
9:56 AM 26.6 °F 12.7 °F 21.2 °F 80% 30.44 in - West 20.7 mph - N/A   Overcast
10:16 AM 26.6 °F 12.4 °F 21.2 °F 80% 30.45 in - West 21.9 mph 27.6 mph N/A   Overcast
10:36 AM 26.6 °F 12.0 °F 21.2 °F 80% 30.45 in - West 23.0 mph 29.9 mph N/A   Overcast
10:56 AM 28.4 °F 14.7 °F 21.2 °F 74% 30.46 in 10.0 mi West 21.9 mph - N/A   Mostly Cloudy
11:16 AM 28.4 °F 13.8 °F 23.0 °F 80% 30.45 in 10.0 mi West 25.3 mph - N/A   Mostly Cloudy
11:36 AM 28.4 °F 16.6 °F 23.0 °F 80% 30.46 in 10.0 mi West 16.1 mph 26.5 mph N/A   Scattered Clouds
11:56 AM 28.4 °F 16.2 °F 23.0 °F 80% 30.46 in 10.0 mi West 17.3 mph 21.9 mph N/A   Scattered Clouds
12:16 PM 28.4 °F 15.8 °F 23.0 °F 80% 30.46 in 10.0 mi West 18.4 mph 25.3 mph N/A   Scattered Clouds
12:36 PM 30.2 °F 19.3 °F 24.8 °F 80% 30.46 in 10.0 mi West 15.0 mph 20.7 mph N/A   Scattered Clouds
12:56 PM 32.0 °F 20.5 °F 26.6 °F 80% 30.46 in 10.0 mi West 18.4 mph 25.3 mph N/A   Scattered Clouds
1:16 PM 32.0 °F 20.5 °F 26.6 °F 80% 30.46 in 10.0 mi West 18.4 mph 24.2 mph N/A   Scattered Clouds
1:36 PM 32.0 °F 19.8 °F 26.6 °F 80% 30.46 in 10.0 mi West 20.7 mph 27.6 mph N/A   Scattered Clouds
1:56 PM 33.8 °F 22.5 °F 26.6 °F 75% 30.46 in 10.0 mi West 19.6 mph 27.6 mph N/A   Scattered Clouds
2:16 PM 33.8 °F 22.5 °F 26.6 °F 75% 30.46 in 10.0 mi WNW 19.6 mph 26.5 mph N/A   Scattered Clouds
2:36 PM 33.8 °F 21.6 °F 23.0 °F 65% 30.46 in 10.0 mi West 23.0 mph 27.6 mph N/A   Scattered Clouds
2:56 PM 35.6 °F 24.5 °F 23.0 °F 60% 30.46 in 10.0 mi West 20.7 mph 29.9 mph N/A   Clear
3:16 PM 37.4 °F 28.2 °F 23.0 °F 56% 30.46 in 10.0 mi West 16.1 mph 23.0 mph N/A   Clear
3:36 PM 37.4 °F 27.2 °F 23.0 °F 56% 30.46 in 10.0 mi West 19.6 mph 26.5 mph N/A   Scattered Clouds
3:56 PM 37.4 °F 26.6 °F 21.2 °F 52% 30.45 in 10.0 mi West 21.9 mph 25.3 mph N/A   Scattered Clouds
4:16 PM 37.4 °F 26.1 °F 19.4 °F 48% 30.46 in 10.0 mi West 24.2 mph 35.7 mph N/A   Clear
4:36 PM 37.4 °F 27.5 °F 21.2 °F 52% 30.46 in 10.0 mi West 18.4 mph 25.3 mph N/A   Clear
4:56 PM 37.4 °F 28.2 °F 21.2 °F 52% 30.46 in 10.0 mi West 16.1 mph 28.8 mph N/A   Clear
5:16 PM 37.4 °F 27.2 °F 21.2 °F 52% 30.46 in 10.0 mi WNW 19.6 mph 29.9 mph N/A   Clear
5:36 PM 37.4 °F 28.2 °F 21.2 °F 52% 30.47 in 10.0 mi West 16.1 mph 26.5 mph N/A   Clear
5:56 PM 37.4 °F 27.5 °F 19.4 °F 48% 30.46 in 10.0 mi West 18.4 mph 27.6 mph N/A   Clear
6:16 PM 37.4 °F 27.2 °F 17.6 °F 45% 30.46 in 10.0 mi West 19.6 mph 27.6 mph N/A   Clear
6:36 PM 37.4 °F 27.8 °F 19.4 °F 48% 30.47 in 10.0 mi West 17.3 mph 23.0 mph 0.01 in   Clear
6:56 PM 35.6 °F 26.2 °F 19.4 °F 52% 30.47 in 10.0 mi West 15.0 mph - N/A   Clear
7:16 PM 35.6 °F 25.9 °F 19.4 °F 52% 30.47 in 10.0 mi West 16.1 mph 20.7 mph N/A   Clear
7:36 PM 33.8 °F 25.3 °F 19.4 °F 56% 30.47 in 10.0 mi West 11.5 mph - N/A   Clear
7:56 PM 33.8 °F 23.2 °F 19.4 °F 56% 30.46 in 10.0 mi West 17.3 mph 23.0 mph N/A   Clear
8:16 PM 33.8 °F 22.8 °F 19.4 °F 56% 30.47 in 10.0 mi West 18.4 mph - N/A   Clear
8:36 PM 33.8 °F 23.2 °F 19.4 °F 56% 30.48 in 10.0 mi West 17.3 mph - N/A   Clear
8:56 PM 33.8 °F 22.5 °F 19.4 °F 56% 30.48 in 10.0 mi West 19.6 mph 24.2 mph N/A   Clear
9:16 PM 33.8 °F 21.9 °F 19.4 °F 56% 30.48 in 10.0 mi West 21.9 mph - N/A   Clear
9:36 PM 33.8 °F 22.2 °F 19.4 °F 56% 30.48 in 10.0 mi West 20.7 mph 26.5 mph N/A   Clear
9:56 PM 33.8 °F 22.2 °F 19.4 °F 56% 30.48 in 10.0 mi West 20.7 mph 26.5 mph N/A   Clear
10:16 PM 33.8 °F 23.2 °F 17.6 °F 52% 30.48 in 10.0 mi West 17.3 mph 23.0 mph N/A   Clear
10:36 PM 33.8 °F 24.3 °F 17.6 °F 52% 30.47 in 10.0 mi WSW 13.8 mph 23.0 mph N/A   Clear
10:56 PM 33.8 °F 24.3 °F 17.6 °F 52% 30.47 in 10.0 mi WSW 13.8 mph - N/A   Clear
11:16 PM 33.8 °F 23.9 °F 17.6 °F 52% 30.46 in 10.0 mi WSW 15.0 mph 23.0 mph N/A   Clear
11:36 PM 33.8 °F 22.5 °F 17.6 °F 52% 30.46 in 10.0 mi WSW 19.6 mph 26.5 mph N/A   Clear
11:56 PM 33.8 °F 23.9 °F 17.6 °F 52% 30.47 in 10.0 mi WSW 15.0 mph 25.3 mph N/A   Clear